Weather History for Alexandria, LA

Change the Weather History Date:

Tuesday, January 29, 2013

  Actual Average Record
Temperature  
Mean Temperature 72 °F 49 °F  
Max Temperature 77 °F 60 °F 84 °F (1957)
Min Temperature 66 °F 38 °F 12 °F (1905)
Degree Days  
Heating Degree Days 0 16  
Month to date heating degree days 371 464  
Since 1 July heating degree days 1080 1253  
Cooling Degree Days 6    
Growing Degree Days 20 (Base 50)    
Moisture  
Dew Point 67 °F    
Average Humidity 84    
Maximum Humidity 93    
Minimum Humidity 74    
Precipitation  
Precipitation 0.20 in 0.20 in 2.62 in (1939)
Month to date precipitation 10.29 4.79  
Year to date precipitation 10.29 4.79  
Snow  
Snow 0.00 in - T in (1951)
Month to date snowfall 0.0  
Since 1 July snowfall 0.0  
Snow Depth 0.00 in    
Sea Level Pressure  
Sea Level Pressure 29.80 in    
Wind  
Wind Speed 11 mph (SSE)    
Max Wind Speed 23 mph    
Max Gust Speed 37 mph    
Visibility 9 miles    
Events Rain , Thunderstorm    
T = Trace of Precipitation, MM = Missing Value Source: NWS Daily Summary

Daily Weather History Graph

Daily Weather History Graph

Search for Another Location

Airport:

Trip Planner

Search our weather history database for the weather conditions in past years. The results will help you decide how hot, cold, wet, or windy it might be!

Date:

Astronomy

Jan. 29, 2013 Rise Set
Actual Time 7:04 AM CST 5:42 PM CST
Civil Twilight 6:38 AM CST 6:08 PM CST
Nautical Twilight 6:09 AM CST 6:37 PM CST
Astronomical Twilight 5:40 AM CST 7:06 PM CST
Moon 8:24 PM CST (1/29) 8:14 AM CST (1/29)
Length of Visible Light 11h 29m
Length of Day
10h 38m
Waning Gibbous, 93% of the Moon is Illuminated
Jan 29
Waning Gibbous
Feb 3
Last Quarter
Feb 10
New
Feb 17
First Quarter
Feb 25
Full

Hourly Weather History & Observations

Time (CST) Temp. Dew Point Humidity Pressure Visibility Wind Dir Wind Speed Gust Speed Precip Events Conditions
12:53 AM 68.0 °F 64.9 °F 90% 30.04 in 10.0 mi SSE 9.2 mph - N/A   Overcast
1:53 AM 68.0 °F 64.9 °F 90% 30.02 in 10.0 mi SSE 9.2 mph - N/A   Overcast
2:29 AM 66.2 °F 64.4 °F 94% 30.00 in 10.0 mi SSE 8.1 mph - N/A   Overcast
2:53 AM 66.9 °F 64.0 °F 90% 30.01 in 10.0 mi SSE 9.2 mph - N/A   Mostly Cloudy
3:02 AM 66.2 °F 64.4 °F 94% 29.99 in 10.0 mi SSE 10.4 mph - N/A   Mostly Cloudy
3:17 AM 66.2 °F 64.4 °F 94% 29.98 in 10.0 mi SSE 11.5 mph - N/A   Overcast
3:31 AM 66.2 °F 64.4 °F 94% 29.98 in 10.0 mi SSE 9.2 mph - N/A   Overcast
3:53 AM 66.9 °F 64.0 °F 90% 29.99 in 10.0 mi SSE 10.4 mph - N/A   Overcast
4:53 AM 66.9 °F 64.0 °F 90% 29.96 in 10.0 mi SSE 11.5 mph - N/A   Mostly Cloudy
6:53 AM 68.0 °F 64.9 °F 90% 29.96 in 10.0 mi SSE 9.2 mph - N/A   Mostly Cloudy
7:45 AM 68.0 °F 64.4 °F 88% 29.95 in 10.0 mi SSE 8.1 mph - N/A   Overcast
7:53 AM 68.0 °F 64.9 °F 90% 29.96 in 10.0 mi SSE 9.2 mph - N/A   Overcast
8:53 AM 69.1 °F 64.9 °F 87% 29.96 in 10.0 mi SSE 9.2 mph - N/A   Overcast
9:53 AM 69.1 °F 66.0 °F 90% 29.95 in 10.0 mi SE 8.1 mph - N/A   Overcast
10:53 AM 71.1 °F 66.0 °F 84% 29.92 in 10.0 mi SSE 10.4 mph 21.9 mph N/A   Overcast
11:50 AM 73.4 °F 66.2 °F 78% 29.87 in 10.0 mi SSE 20.7 mph 24.2 mph N/A   Mostly Cloudy
11:53 AM 75.0 °F 66.0 °F 73% 29.87 in 10.0 mi SSE 19.6 mph 25.3 mph N/A   Mostly Cloudy
12:32 PM 75.2 °F 66.2 °F 73% 29.82 in 10.0 mi South 17.3 mph 27.6 mph N/A   Mostly Cloudy
12:53 PM 75.9 °F 66.0 °F 71% 29.80 in 10.0 mi South 19.6 mph 28.8 mph N/A   Overcast
1:19 PM 75.2 °F 66.2 °F 73% 29.78 in 10.0 mi SSE 18.4 mph 28.8 mph N/A   Overcast
1:35 PM 75.2 °F 66.2 °F 73% 29.77 in 10.0 mi South 18.4 mph 29.9 mph N/A   Overcast
1:53 PM 75.9 °F 66.0 °F 71% 29.78 in 10.0 mi South 18.4 mph 27.6 mph N/A   Overcast
2:45 PM 73.4 °F 66.2 °F 78% 29.75 in 10.0 mi SSE 12.7 mph 19.6 mph 0.00 in Rain Light Rain
2:53 PM 73.9 °F 66.9 °F 79% 29.76 in 9.0 mi SSE 13.8 mph 20.7 mph 0.00 in Rain Light Rain
3:10 PM 73.4 °F 69.8 °F 88% 29.74 in 5.0 mi South 11.5 mph - 0.04 in Rain Light Rain
3:19 PM 71.6 °F 69.8 °F 94% 29.73 in 1.8 mi SSE 16.1 mph 20.7 mph 0.14 in Rain Rain
3:26 PM 71.6 °F 69.8 °F 94% 29.73 in 1.2 mi South 12.7 mph 24.2 mph 0.20 in Rain Heavy Rain
3:30 PM 71.6 °F 69.8 °F 94% 29.73 in 3.0 mi South 8.1 mph 19.6 mph 0.20 in Rain Light Rain
3:53 PM 73.0 °F 70.0 °F 90% 29.73 in 10.0 mi South 8.1 mph 17.3 mph 0.20 in   Overcast
4:06 PM 73.4 °F 69.8 °F 88% 29.72 in 10.0 mi South 9.2 mph - N/A   Overcast
4:31 PM 73.4 °F 69.8 °F 88% 29.71 in 9.0 mi South 9.2 mph 18.4 mph 0.00 in Rain Light Rain
4:47 PM 71.6 °F 69.8 °F 94% 29.70 in 2.0 mi SSE 8.1 mph - 0.09 in Rain , Thunderstorm Heavy Thunderstorms and Rain
4:53 PM 72.0 °F 70.0 °F 93% 29.69 in 1.0 mi SSE 13.8 mph 17.3 mph 0.22 in Rain , Thunderstorm Heavy Thunderstorms and Rain
5:02 PM 71.6 °F 69.8 °F 94% 29.70 in 2.0 mi SSW 15.0 mph - 0.06 in Rain Rain
5:04 PM 71.6 °F 71.6 °F 100% 29.70 in 3.0 mi South 13.8 mph - 0.06 in Rain Rain
5:53 PM 73.0 °F 70.0 °F 90% 29.68 in 10.0 mi South 13.8 mph 20.7 mph 0.07 in Rain Light Rain
6:53 PM 73.9 °F 70.0 °F 87% 29.68 in 10.0 mi South 16.1 mph 26.5 mph 0.01 in Rain Light Rain
7:53 PM 73.9 °F 69.1 °F 85% 29.66 in 10.0 mi South 19.6 mph 34.5 mph 0.00 in   Overcast
8:48 PM 73.4 °F 69.8 °F 88% 29.65 in 9.0 mi South 20.7 mph 29.9 mph 0.02 in Rain , Thunderstorm Light Rain
8:53 PM 73.0 °F 69.1 °F 87% 29.66 in 9.0 mi South 20.7 mph 31.1 mph 0.03 in Rain , Thunderstorm Light Rain
9:14 PM 73.4 °F 69.8 °F 88% 29.64 in 10.0 mi South 20.7 mph 28.8 mph 0.00 in Rain Light Rain
9:53 PM 73.0 °F 69.1 °F 87% 29.66 in 10.0 mi SSW 17.3 mph 32.2 mph 0.01 in   Overcast
10:20 PM 73.4 °F 68.0 °F 83% 29.66 in 10.0 mi South 21.9 mph 35.7 mph 0.00 in   Overcast
10:53 PM 73.0 °F 68.0 °F 84% 29.67 in 10.0 mi South 21.9 mph 33.4 mph 0.00 in Rain Light Rain
11:41 PM 71.6 °F 68.0 °F 88% 29.65 in 10.0 mi South 16.1 mph 29.9 mph 0.01 in Rain Light Rain
11:53 PM 72.0 °F 68.0 °F 87% 29.66 in 10.0 mi SSW 13.8 mph 23.0 mph 0.01 in Rain Light Rain